Location: Newark
(51.3318°N, 0.0053°E)
Time: 06:05:27
(UTC+00:00)

CUBEBUG 2 - Pass Details

Date: 10 July 2022
Orbit: 584 x 692 km, 97.7° (Epoch: 12 August)

Event Time Altitude Azimuth Distance (km) Brightness Sun altitude
Rises 02:26:58 0° 20° (NNE) 2,866 ? -10.1°
Reaches altitude 10° 02:29:17 10° 30° (NNE) 1,972 ? -9.9°
Maximum altitude 02:33:13 35° 96° (E) 1,019 ? -9.6°
Drops below altitude 10° 02:37:14 10° 163° (SSE) 2,016 ? -9.2°
Enters shadow 02:39:04 - 170° (S) 2,718 ? -9.1°
